Flag for Greece Weather past 2 weeks in Rhodes, Rhodes, Greece

Now
82 °F

Passing clouds.


Feels Like: 83 °F
Forecast: 74 / 84 °F
Wind: 15 mph from West

Location: Rhodes Airport

Current Time: Jul 4, 2015 at 3:15:30 PM

Latest Report: Jul 4, 2015 at 2:50 PM


Visibility: N/A

Pressure: 29.86 "Hg

Humidity: 51%

Dew point: 63 °F

Location of RhodesLocation

Historic Weather in Rhodes — Graph

°F

Rhodes temperature yesterday

Maximum temperature yesterday: 88 °F (at 6:50 PM)
Minimum temperature yesterday: 73 °F (at 2:50 AM)
Average temperature yesterday: 80 °F

Past Weeks' High & Low Weather Summary

 TemperatureHumidityPressure
High88 °F (Jul 3, 6:50 PM)100% (Jun 27, 7:50 AM)29.95 "Hg (Jun 27, 7:50 AM)
Low37 °F (Jun 27, 7:50 AM)40% (Jul 3, 6:50 PM)29.62 "Hg (Jun 27, 3:20 AM)
Average75 °F69%29.80 "Hg
* Reported Jun 19 1:20 PM — Jul 4 1:50 PM, Rhodes, Weather by CustomWeather, © 2015

Note: Actual official high and low records may vary slightly from our data, if they occured in-between our weather recording intervals... More about our weather records

Advertising

Rhodes weather history for previous 24 hours

 ConditionsComfort  
Time TempWeatherWind HumidityBarometerVisibility
1:50 PM
Sat, Jul 4
82 °FPassing clouds.13 mph48%29.86 "HgN/A
1:20 PM82 °FPassing clouds.14 mph51%29.86 "HgN/A
12:50 PM82 °FPassing clouds.13 mph51%29.86 "HgN/A
12:20 PM82 °FPassing clouds.13 mph51%29.86 "HgN/A
11:50 AM82 °FPassing clouds.12 mph51%29.86 "HgN/A
11:20 AM81 °FSunny.9 mph51%29.86 "Hg10 mi
10:50 AM81 °FSunny.10 mph51%29.86 "Hg10 mi
10:20 AM81 °FSunny.8 mph51%29.86 "Hg10 mi
9:50 AM81 °FPassing clouds.8 mph51%29.86 "HgN/A
9:20 AM79 °FSunny.7 mph54%29.86 "Hg10 mi
8:50 AM79 °FSunny.8 mph54%29.86 "Hg10 mi
7:50 AM77 °FSunny.7 mph57%29.83 "Hg10 mi
7:20 AM73 °FSunny.8 mph65%29.83 "Hg10 mi
6:50 AM73 °FClear.7 mph65%29.83 "Hg10 mi
6:20 AM73 °FClear.7 mph65%29.83 "Hg10 mi
5:50 AM73 °FClear.6 mph65%29.83 "Hg10 mi
5:20 AM77 °FClear.8 mph54%29.83 "Hg10 mi
4:50 AM77 °FClear.7 mph54%29.83 "Hg10 mi
4:20 AM77 °FClear.8 mph54%29.83 "Hg10 mi
3:50 AM77 °FClear.8 mph54%29.83 "Hg10 mi
3:20 AM77 °FClear.9 mph54%29.86 "Hg10 mi
2:50 AM77 °FClear.9 mph54%29.86 "Hg10 mi
2:20 AM79 °FClear.7 mph51%29.86 "Hg10 mi
1:50 AM79 °FClear.8 mph51%29.86 "Hg10 mi
1:20 AM79 °FClear.8 mph54%29.86 "Hg10 mi
12:50 AM79 °FClear.7 mph54%29.86 "Hg10 mi
12:20 AM79 °FClear.8 mph54%29.86 "Hg10 mi
11:50 PM
Fri, Jul 3
79 °FClear.8 mph54%29.86 "Hg10 mi
11:20 PM82 °FClear.9 mph48%29.86 "Hg10 mi
10:50 PM82 °FClear.8 mph48%29.86 "Hg10 mi
10:20 PM82 °FClear.9 mph48%29.86 "Hg10 mi
9:50 PM82 °FPassing clouds.9 mph48%29.86 "HgN/A
9:20 PM82 °FSunny.9 mph45%29.86 "Hg10 mi
8:50 PM82 °FSunny.10 mph45%29.83 "Hg10 mi
8:20 PM86 °FSunny.12 mph40%29.83 "Hg10 mi
7:50 PM86 °FSunny.12 mph40%29.83 "Hg10 mi
7:20 PM88 °FSunny.13 mph40%29.83 "Hg10 mi
6:50 PM88 °FSunny.13 mph40%29.83 "Hg10 mi
6:20 PM86 °FPassing clouds.15 mph43%29.83 "HgN/A
5:50 PM86 °FPassing clouds.15 mph43%29.83 "HgN/A
5:20 PM86 °FPassing clouds.15 mph43%29.86 "HgN/A
4:50 PM86 °FPassing clouds.15 mph43%29.86 "HgN/A
4:20 PM86 °FPassing clouds.15 mph43%29.86 "HgN/A
3:50 PM86 °FPassing clouds.15 mph43%29.86 "HgN/A
3:20 PM86 °FPassing clouds.13 mph49%29.86 "HgN/A
Weather by CustomWeather, © 2015

See weather overviewHow to use our weather pages